カタログに戻る

TJS-10

運用中通信GEO
NORAD 58204·PAYLOAD·🇨🇳 China

打ち上げ Nov 3, 2023 から Wenchang Space Launch Site

Loading…

TLE

最新Source: Space-Track

元期: Sep 14, 2026, 18:02 UTC

1 58204U 23169A   26257.75149455 -.00000257  00000-0  00000+0 0  9996
2 58204   2.7690  79.3368 0004115 130.0450 147.2706  1.00275337 10438

AllMySatでTJS-10をリアルタイム追跡

Download on the App Store